Location: ????????
(55.1591°N, 39.1782°E)
Time: 10:10:48
(UTC+00:00)

USA 229 DEB - Pass Details

Date: 14 April 2024
Orbit: 892 x 1319 km, 63.4° (Epoch: 18 May)

Event Time Altitude Azimuth Distance (km) Brightness Sun altitude
Rises 01:34:44 0° 303° (WNW) 3,839 6.3 -7.0°
Reaches altitude 10° 01:37:19 10° 307° (NW) 2,943 5.8 -6.7°
Maximum altitude 01:44:20 64° 28° (NNE) 1,296 4.5 -5.8°
Drops below altitude 10° 01:52:05 10° 110° (ESE) 3,234 7.0 -4.8°
Sets 01:55:02 0° 114° (ESE) 4,242 7.5 -4.4°
